Other Surface Observations
Issued by NWS Tucson, AZ

Home | Current Version | Previous Version | Text Only | Print | Product List | Glossary On
Versions: 1 2 3 4 5 6 7 8 9 10 11 12 13 14 15 16 17 18 19 20 21 22 23 24 25 26 27 28 29 30 31 32 33 34 35 36 37 38 39 40 41 42 43 44 45 46 47 48 49 50
000
SXUS55 KTWC 271915
OSOTWC

WEATHER ROUNDUP FOR SOUTHEAST ARIZONA
NATIONAL WEATHER SERVICE TUCSON AZ
1215 PM MST TUE JUN 27 2017

AZZ504>506-514-272015-
LOCATION       SKY/WX    TMP DP  RH WIND       PRES   REMARKS
TUCSON         SUNNY    102  33   9 W10       29.97F
DAVIS-MONTHAN  SUNNY    100  31   9 SW3       29.96F
CHILDRENS PARK N/A      N/A N/A  13 W2                PIMA CO DEQ
ALVERNON/22ND  N/A       98 N/A N/A W1                PIMA CO DEQ
CHERRY/GLENN   N/A      N/A N/A N/A N/A               PIMA CO DEQ
TANGERINE      N/A       99 N/A N/A W6                PIMA CO DEQ
CONTL RANCH    N/A      100  34  10 W8                PIMA CO DEQ
GRANT/1ST      N/A       98  39  13 W8                PIMA CO DEQ
CRAYCROFT/22ND N/A       98  41  14 N/A               PIMA CO DEQ
GOLFLINKS/KOLB N/A      N/A N/A N/A N/A               PIMA CO DEQ
AJO/12TH       N/A      100  36  11 W7                PIMA CO DEQ
FAIRGROUNDS    N/A       97 N/A N/A N/A               PIMA CO DEQ
SAGUARO        N/A      101  41  13 SW6G16            *SABINO CYN
SAN CARLOS     N/A       99  47  17 SE10G14           *SAN CARLOS
GREEN VALLEY   N/A       99  37  12 NW2               PIMA CO DEQ
HORSE CAMP CYN N/A       95  42  16 SW10G18           *ARAVAIPA CYN
RINCON MTNS    N/A       81  32  17 SW3G12            *NR MANNING CAMP
$$

AZZ509>511-272015-
LOCATION       SKY/WX    TMP DP  RH WIND       PRES   REMARKS
SAFFORD        SUNNY     98  45  16 S10       29.97F
STRAY HORSE    N/A       76  41  28 W8G15             *
TRAIL CABIN    N/A       85  42  22 W7G16             *N OF GRANVILLE
BLACK HILLS    NOT AVBL
DRY LAKE       N/A       83  35  18 SW6G14            *NATANES MTNS
NOON CREEK     N/A       92  52  26 NE6G10            *PINALENO MTNS
COLUMBINE      N/A       71  40  32 W5G13             *PINALENO MTNS
GUTHRIE        N/A       82  51  34 S5G12             *SW OF GUTHRIE
$$

AZZ502-503-513-272015-
LOCATION       SKY/WX    TMP DP  RH WIND       PRES   REMARKS
NOGALES        SUNNY     98  38  12 SW9       30.07F
SELLS          N/A      101  46  16 NE5G10            *
SASABE         N/A       99  35  11 W9G18             *ALTAR VLY
HOPKINS        N/A       87  28  12 W10G17            *SANTA RITA MTNS
CARR CYN       N/A       93  42  17 N3G10             *W OF HEREFORD
$$

AZZ507-508-512-272015-
LOCATION       SKY/WX    TMP DP  RH WIND       PRES   REMARKS
SIERRA VISTA   PTSUNNY   94  32  11 NW10      30.14F
DOUGLAS        SUNNY     95  39  14 NW7       30.07F
EMPIRE MTNS    NOT AVBL
MULESHOE RANCH N/A       93  40  16 NW4G12            *PRESERVE
HEADQUARTERS   N/A       90  45  21 N3G10             *CHIRICAHUA MTNS
$$

.............................NOTES.............................
THIS IS AN AUTOMATED COLLECTIVE WITH MINIMAL QUALITY CONTROL.
PIMA CO DEQ SITES HAVE NONSTANDARD WIND SENSOR HEIGHTS.
PIMA CO DEQ SITES DO NOT REPORT WIND GUSTS.
* INDICATES WIND SENSORS LOCATED AT 20 FEET INSTEAD OF 33 FEET.
..............................KEY..............................
SKY/WX - SKY CONDITION/WEATHER
TMP    - TEMPERATURE IN FAHRENHEIT
DP     - DEWPOINT IN FAHRENHEIT
RH     - RELATIVE HUMIDITY IN PERCENT
WIND   - DIRECTION AND SPEED IN MILES PER HOUR (MPH)
VRB    - VARIABLE WIND DIRECTION
PRES   - MEAN SEA LEVEL PRESSURE IN INCHES OF MERCURY
         F - FALLING PRESSURE   R - RISING PRESSURE
         S - STEADY PRESSURE
VSB    - VISIBILITY IN MILES
HX     - HEAT INDEX IN FAHRENHEIT
WCI    - WIND CHILL INDEX IN FAHRENHEIT
N/A    - NOT AVAILABLE
AFB    - AIR FORCE BASE
         DAVIS-MONTHAN IS DAVIS-MONTHAN AIR FORCE BASE
CYN    - CANYON
MTNS   - MOUNTAINS
NCA    - NATIONAL CONSERVATION AREA
NR     - NEAR
VLY    - VALLEY
CONTL  - CONTINENTAL
PIMA CO DEQ - PIMA COUNTY DEPT OF ENVIRONMENTAL QUALITY



USA.gov is the U.S. government's official web portal to all federal, state and local government web resources and services.